Location: Gleizolles
(44.4833°N, 6.7667°E)
Time: 05:59:35
(UTC+00:00)

Vanguard 2 - Pass Details

Date: 01 July 2024
Orbit: 552 x 2913 km, 32.9° (Epoch: 17 July)

Event Time Altitude Azimuth Distance (km) Brightness Sun altitude
Exits shadow 01:39:24 18° 185° (S) 3,305 10.2 -16.9°
Maximum altitude 01:45:02 28° 144° (SE) 3,212 10.4 -16.4°
Drops below altitude 10° 01:56:23 10° 94° (E) 5,259 12.2 -15.3°
Sets 02:01:52 0° 85° (E) 6,536 12.9 -14.8°
